Tracking 30685 objects as of 18-Jun-2025
HD Live streaming from Space Station
objects crossing your sky now

COSMOS 1275 DEB

Track COSMOS 1275 DEB now!
10-day predictions


NORAD ID: 13020
Int'l Code: 1981-053ES
Perigee: 888.6 km
Apogee: 1,058.4 km
Inclination: 82.7 °
Period: 104.4 minutes
Semi major axis: 7344 km
RCS: 0.0175 m2 (small)
Launch date: June 4, 1981
Source: Commonwealth of Independent States (former USSR) (CIS)
Launch site: PLESETSK MISSILE AND SPACE COMPLEX (PKMTR)

Note: This is SATELLITE DEBRIS
Your satellite tracking list
Your tracking list is empty




NASA's NSSDC Master Catalog

Two Line Element Set (TLE):
1 13020U 81053ES  25168.39393382  .00000614  00000-0  55456-3 0  9994
2 13020  82.6903 143.7545 0115598  95.7808  55.4644 13.79308222180397
Source of the keplerian elements: AFSPC